This demonstration page uses our WeatherBlox Daily Observations layout. Learn more.

Left ArrowRight Arrow

44.8408, -93.29828

Hourly Observations for August 20, 2019

Temp ( °F °C ) Dew Point ( °F °C ) Humidity (%) Winds ( mph kmh ) Pressure ( in mb ) Visibility ( mi km ) Precip ( " mm )
12:53 am 00:53 Clear 71 21.7 62 16.7 73 73 S 7 11 29.98 1015 10 16 0.00 0.00
1:53 am 01:53 Clear 70 21.1 62 16.7 76 76 SSE 5 7 29.98 1015 10 16 0.00 0.00
2:53 am 02:53 Clear 68 20 61 16.1 78 78 SSE 6 9 29.96 1014 10 16 0.00 0.00
3:53 am 03:53 Mostly Clear 67 19.4 61 16.1 81 81 SE 7 11 29.91 1013 10 16 0.00 0.00
4:53 am 04:53 Clear 66 18.9 60 15.6 81 81 SE 3 6 29.89 1012 10 16 0.00 0.00
5:53 am 05:53 Mostly Clear 65 18.3 60 15.6 84 84 SE 6 9 29.88 1012 10 16 0.00 0.00
6:53 am 06:53 Mostly Cloudy 65 18.3 60 15.6 84 84 SSE 8 13 29.91 1013 10 16 0.00 0.00
7:53 am 07:53 Mostly Cloudy 68 20 60 15.6 76 76 S 9 15 29.91 1013 10 16 0.00 0.00
8:53 am 08:53 Mostly Cloudy 70 21.1 61 16.1 73 73 SE 10 17 29.92 1013 10 16 0.00 0.00
9:41 am 09:41 Cloudy with Nearby Thunderstorms 72 22.2 62 16.7 71 71 NNE 12 19 29.94 1014 10 16 0.00 0.00
9:53 am 09:53 Cloudy with Nearby Thunderstorms 70 21.1 62 16.7 76 76 NNE 16 26 29.97 1015 10 16 0.00 0.00
9:59 am 09:59 Cloudy with Strong Thunderstorms 69 20.6 63 17.2 81 81 NNE 15 24 29.96 1014 2 2 0.05 1.27
10:15 am 10:15 Cloudy with Strong Thunderstorms 68 20 65 18.3 90 90 N 16 26 30.02 1017 2 3 0.29 7.37
10:28 am 10:28 Cloudy with Strong Thunderstorms 67 19.4 65 18.3 93 93 E 21 33 29.96 1015 2 3 0.56 14.22
10:33 am 10:33 Mostly Cloudy with Strong Thunderstorms 67 19.4 65 18.3 93 93 ESE 29 46 29.92 1013 5 8 0.61 15.49
10:41 am 10:41 Mostly Cloudy with Nearby Thunderstorms 67 19.4 64 17.8 91 91 ESE 35 56 29.85 1011 9 14 0.62 15.75
10:53 am 10:53 Mostly Cloudy with Light Rain 67 19.4 64 17.8 91 91 SE 17 28 29.93 1014 10 16 0.63 16.00
11:53 am 11:53 Mostly Cloudy 68 20 64 17.8 87 87 SSE 15 24 29.96 1014 10 16 0.00 0.00
12:53 pm 12:53 Mostly Cloudy 71 21.7 65 18.3 81 81 S 14 22 29.95 1014 10 16 0.00 0.00
1:53 pm 13:53 Mostly Sunny 77 25 66 18.9 69 69 S 10 17 29.93 1014 10 16 0.00 0.00
2:53 pm 14:53 Mostly Sunny 80 26.7 66 18.9 62 62 W 8 13 29.92 1013 10 16 0.00 0.00
3:53 pm 15:53 Partly Cloudy 82 27.8 67 19.4 60 60 W 12 19 29.92 1013 10 16 0.00 0.00
4:53 pm 16:53 Mostly Cloudy 80 26.7 69 20.6 69 69 NW 10 17 29.92 1013 10 16 0.00 0.00
5:53 pm 17:53 Mostly Cloudy 81 27.2 69 20.6 67 67 NW 9 15 29.92 1013 10 16 0.00 0.00
6:53 pm 18:53 Partly Cloudy 80 26.7 67 19.4 64 64 NNW 9 15 29.92 1013 10 16 0.00 0.00
7:53 pm 19:53 Partly Cloudy 79 26.1 67 19.4 67 67 WNW 9 15 29.93 1013 10 16 0.00 0.00
8:53 pm 20:53 Partly Cloudy 76 24.4 67 19.4 74 74 NNW 6 9 29.95 1014 10 16 0.00 0.00
9:53 pm 21:53 Partly Cloudy 75 23.9 67 19.4 76 76 NW 6 9 29.96 1015 10 16 0.00 0.00
10:53 pm 22:53 Mostly Clear 74 23.3 64 17.8 71 71 N 12 19 29.99 1016 10 16 0.00 0.00
11:53 pm 23:53 Mostly Clear 72 22.2 63 17.2 73 73 N 9 15 30.01 1016 10 16 0.00 0.00

Powered by AerisWeather